Warning: Javascript must be enabled to use all the features on this page!


Page Loading - Please Wait...

Click to hideNews Bulletins

Peak Streamflow for the Nation

USGS 01384500 Ringwood Creek near Wanaque NJ

Passaic County, New Jersey
Hydrologic Unit Code 02030103
Latitude  41°07'38", Longitude  74°15'57" NAD83
Drainage area 17.9  square miles
Gage datum 292.67 feet above NGVD29
Output formats
Table
Graph
Tab-separated file
peakfq (watstore) format
Reselect output format
Water
Year
Date Gage
Height
(feet)
Stream-
flow
(cfs)
1936 1936-03-12 3.40 864
1937 1937-02-22 2.84 518
1938 1938-09-21 3.33 830
1939 1938-12-06 2.44 379
1940 1940-04-08 2.31 349
1941 1941-02-08 1.52 207
1942 1942-09-28 2.32 351
1943 1942-11-25 2.34 355
1944 1943-11-09 2.48 390
1945 1945-07-19 3.40 897
1946 1946-07-23 2.26 339
1947 1947-04-05 2.41 371
1948 1948-03-16 2.13 312
1949 1948-12-31 3.00 595
1950 1950-03-23 1.90 270
1951 1951-03-30 3.74 1,570
1952 1952-03-11 3.34 868
1953 1953-01-24 2.73 468
1954 1954-05-10 1.47 192
1955 1955-08-19 3.61 1,270
1956 1955-10-15   1,0002
1957 1957-04-06 2.26 339
1958 1958-02-28 2.58 419
1959 1959-03-06 1.54 210
1960 1960-09-12 2.75 477
1961 1961-02-26 2.74 472
1962 1962-03-12 2.28 343
1963 1962-11-10 1.91 272
1964 1964-01-25 1.39 187
1965 1965-02-08 1.47 208
1966 1966-09-21 1.60 242
1967 1967-03-12 1.39 187
1968 1968-05-29 3.72 1,520
1969 1969-03-25 2.78 468
1970 1970-04-02 3.06 572
1971 1971-08-28 2.95 570
1972 1972-06-23   5502
1973 1972-11-08 2.76 481
1974 1973-12-21 2.84 518
1975 1975-09-27 2.38 364
1976 1976-01-27 2.47 388
1977 1977-03-22 3.16 701
1978 1977-11-08 3.37 905
1986 1986-01-26 11.716 239
1987 1987-04-04 13.22 749
1988 1987-10-28 11.87 265
1989 1989-05-17 12.49 393
1990 1989-10-20 12.55 410
1991 1990-12-04 11.90 270
1992 1992-06-06 12.24 335
1993 1993-03-28 11.92 390
1994 1993-11-28 11.69 291
1995 1995-03-09 11.65 274
1996 1996-01-27 12.87 906
1997 1996-12-02 12.26 558
1998 1998-05-11 11.87 366
1999 1999-09-16 13.92 2,300
2000 2000-06-07 11.61 258
2001 2000-12-17 12.22 537
2002 2002-05-18 11.52 227
2003 2003-03-22 12.06 457
2004 2003-12-24 12.15 500
2005 2005-04-03 12.56 715
2006 2005-10-12 13.34 1,290
2007 2007-04-16 13.16 1,110
2008 2008-02-13 12.36 491
2009 2008-12-12 12.41 519
2010 2010-03-13 13.37 1,490
2011 2011-08-28 14.02 2,430
2012 2011-12-08 12.04 431
2013 2012-12-21 11.99 408
2014 2014-05-01 11.79 316
2015 2015-03-17 11.17 115
2016 2016-07-31 11.96 3812
2017 2017-04-06 11.48 195
2018 2018-04-16 11.73 283
?
  Peak Gage-Height Qualification Codes.
?
  Peak Streamflow Qualification Codes.